Location: Sungai Igah
(2.7333°N, 114.2500°E)
Time: 21:11:44
(UTC+00:00)

Sich 1 - Pass Details

Date: 14 June 2021
Orbit: 593 x 625 km, 82.5° (Epoch: 25 July)

Event Time Altitude Azimuth Distance (km) Brightness Sun altitude
Exits shadow 20:41:49 30° 170° (S) 1,086 4.1 -22.0°
Maximum altitude 20:43:52 70° 94° (E) 642 3.2 -21.6°
Drops below altitude 10° 20:48:09 10° 10° (N) 1,953 6.1 -20.6°
Sets 20:50:23 0° 8° (N) 2,860 7.0 -20.1°
